Flag for U.S.A. Weather past 2 weeks in Mobile, Alabama, U.S.A.

Now
92 °F

Scattered clouds.


Feels Like: 101 °F
Forecast: 73 / 92 °F
Wind: 7 mph from East

Location: Mobile Downtown Airport

Current Time: Aug 2, 2015 at 1:28:03 PM

Latest Report: Aug 2, 2015 at 12:53 PM


Visibility: 10 mi

Pressure: 29.91 "Hg

Humidity: 54%

Dew point: 73 °F

Location of MobileLocation

Historic Weather in Mobile — Graph

°F

Mobile temperature yesterday

Maximum temperature yesterday: 95 °F (at 3:53 PM)
Minimum temperature yesterday: 75 °F (at 6:53 AM)
Average temperature yesterday: 84 °F

Past Weeks' High & Low Weather Summary

 TemperatureHumidityPressure
High96 °F (Jul 24, 3:53 PM)100% (Jul 20, 3:53 AM)30.05 "Hg (Jul 20, 3:53 AM)
Low73 °F (Jul 27, 4:53 AM)41% (Jul 18, 3:53 PM)29.85 "Hg (Aug 1, 4:53 PM)
Average84 °F74%29.96 "Hg
* Reported Jul 18 11:53 AM — Aug 2 11:53 AM, Mobile, Weather by CustomWeather, © 2015

Note: Actual official high and low records may vary slightly from our data, if they occured in-between our weather recording intervals... More about our weather records

Advertising

Mobile weather history for previous 24 hours

 ConditionsComfort  
Time TempWeatherWind HumidityBarometerVisibility
11:53 AM
Sun, Aug 2
91 °FScattered clouds.7 mph60%29.91 "Hg10 mi
10:53 AM90 °FSunny.6 mph61%29.92 "Hg10 mi
9:53 AM87 °FPassing clouds.8 mph63%29.91 "Hg10 mi
8:53 AM84 °FSunny.7 mph70%29.91 "Hg10 mi
7:53 AM82 °FSunny.6 mph70%29.91 "Hg10 mi
6:53 AM76 °FClear.6 mph80%29.89 "Hg10 mi
5:53 AM73 °FClear.5 mph84%29.88 "Hg10 mi
4:53 AM75 °FClear.5 mph79%29.86 "Hg10 mi
3:53 AM76 °FClear.6 mph77%29.86 "Hg10 mi
2:53 AM76 °FClear.5 mph77%29.87 "Hg10 mi
1:53 AM77 °FClear.3 mph71%29.88 "Hg10 mi
12:53 AM77 °FClear.5 mph71%29.88 "Hg10 mi
11:53 PM
Sat, Aug 1
78 °FClear.5 mph69%29.89 "Hg10 mi
10:53 PM80 °FClear.5 mph62%29.89 "Hg10 mi
9:53 PM82 °FClear.5 mph60%29.89 "Hg10 mi
8:53 PM84 °FClear.6 mph57%29.88 "Hg10 mi
7:53 PM86 °FSunny.8 mph51%29.87 "Hg10 mi
6:53 PM90 °FScattered clouds.8 mph47%29.86 "Hg10 mi
5:53 PM91 °FPassing clouds.7 mph47%29.86 "Hg10 mi
4:53 PM94 °FScattered clouds.8 mph46%29.85 "Hg10 mi
3:53 PM95 °FScattered clouds.14 mph43%29.86 "Hg10 mi
2:53 PM93 °FScattered clouds.7 mph52%29.88 "Hg10 mi
1:53 PM92 °FScattered clouds.7 mph52%29.90 "Hg10 mi
Weather by CustomWeather, © 2015

See weather overviewHow to use our weather pages